| time (UTC) | temp F | wind direction | speed MPH | gust MPH | rain 1hr in | rain 24hr in | rain mn in | humidity % | barometer mb |
| 20260901071957 | 75 | 173 | 0.0 | 0.0 | 0.00 | 0.00 | 0.00 | 73 | 1017.0 |
| 20260901071456 | 75 | 179 | 0.0 | 0.0 | 0.00 | 0.00 | 0.00 | 73 | 1017.1 |
| 20260901070955 | 75 | 181 | 0.0 | 0.0 | 0.00 | 0.00 | 0.00 | 73 | 1017.0 |
| 20260901070451 | 76 | 175 | 0.0 | 0.0 | 0.00 | 0.00 | 0.00 | 73 | 1017.0 |
| 20260901065949 | 76 | 177 | 0.0 | 0.0 | 0.00 | 0.00 | 0.00 | 72 | 1017.1 |
| 20260901065445 | 76 | 177 | 0.0 | 0.0 | 0.00 | 0.00 | 0.00 | 72 | 1017.0 |
| 20260901064940 | 76 | 170 | 0.0 | 0.0 | 0.00 | 0.00 | 0.00 | 72 | 1017.0 |
| 20260901064436 | 76 | 171 | 0.0 | 0.0 | 0.00 | 0.00 | 0.00 | 72 | 1017.2 |
| 20260901063933 | 76 | 165 | 0.0 | 0.0 | 0.00 | 0.00 | 0.00 | 72 | 1017.1 |
| 20260901063429 | 76 | 166 | 0.0 | 0.0 | 0.00 | 0.00 | 0.00 | 72 | 1017.2 |
| 20260901062925 | 77 | 167 | 0.0 | 0.0 | 0.00 | 0.00 | 0.00 | 71 | 1017.2 |
| 20260901062421 | 77 | 167 | 0.0 | 0.0 | 0.00 | 0.00 | 0.00 | 71 | 1017.2 |
| 20260901061916 | 77 | 167 | 0.0 | 0.0 | 0.00 | 0.00 | 0.00 | 70 | 1017.0 |
| 20260901061412 | 77 | 163 | 0.0 | 0.0 | 0.00 | 0.00 | 0.00 | 70 | 1017.1 |
| 20260901060907 | 77 | 172 | 0.0 | 0.0 | 0.00 | 0.00 | 0.00 | 69 | 1017.2 |
| 20260901060403 | 77 | 169 | 0.0 | 0.0 | 0.00 | 0.00 | 0.00 | 69 | 1017.1 |
| 20260901055902 | 77 | 169 | 0.0 | 0.0 | 0.00 | 0.00 | 0.00 | 69 | 1017.2 |
| 20260901055358 | 77 | 169 | 0.0 | 0.0 | 0.00 | 0.00 | 0.00 | 70 | 1017.1 |
| 20260901054854 | 77 | 169 | 0.0 | 0.0 | 0.00 | 0.00 | 0.00 | 70 | 1016.9 |
| 20260901054352 | 77 | 169 | 0.0 | 0.0 | 0.00 | 0.00 | 0.00 | 70 | 1017.2 |
| 20260901053847 | 77 | 170 | 0.0 | 0.0 | 0.00 | 0.00 | 0.00 | 70 | 1017.0 |
| 20260901053343 | 77 | 170 | 0.0 | 0.0 | 0.00 | 0.00 | 0.00 | 70 | 1017.1 |
| 20260901052838 | 77 | 170 | 0.0 | 0.0 | 0.00 | 0.00 | 0.00 | 70 | 1017.1 |
| 20260901052333 | 77 | 169 | 0.0 | 0.0 | 0.00 | 0.00 | 0.00 | 70 | 1016.9 |
| 20260901051832 | 77 | 170 | 0.0 | 0.0 | 0.00 | 0.00 | 0.00 | 69 | 1016.9 |
| 20260901051327 | 78 | 170 | 0.0 | 0.0 | 0.00 | 0.00 | 0.00 | 69 | 1016.8 |
| 20260901050822 | 78 | 170 | 0.0 | 0.0 | 0.00 | 0.00 | 0.00 | 67 | 1016.8 |
| 20260901050318 | 78 | 170 | 0.0 | 0.0 | 0.00 | 0.00 | 0.00 | 67 | 1016.8 |
| 20260901045808 | 78 | 170 | 0.0 | 0.0 | 0.00 | 0.00 | 0.00 | 67 | 1016.7 |
| 20260901045307 | 78 | 170 | 0.0 | 0.0 | 0.00 | 0.00 | 0.00 | 67 | 1016.8 |
| 20260901044803 | 79 | 170 | 0.0 | 0.0 | 0.00 | 0.00 | 0.00 | 66 | 1016.9 |
| 20260901044259 | 79 | 170 | 0.0 | 0.0 | 0.00 | 0.00 | 0.00 | 66 | 1016.9 |
| 20260901043754 | 79 | 169 | 0.0 | 0.0 | 0.00 | 0.00 | 0.00 | 66 | 1016.9 |
| 20260901043250 | 79 | 170 | 0.0 | 0.0 | 0.00 | 0.00 | 0.00 | 65 | 1016.8 |
| 20260901042749 | 80 | 168 | 0.0 | 0.0 | 0.00 | 0.00 | 0.00 | 64 | 1016.9 |
| 20260901042244 | 80 | 172 | 0.0 | 0.0 | 0.00 | 0.00 | 0.00 | 64 | 1016.8 |
| 20260901041740 | 81 | 172 | 0.0 | 0.0 | 0.00 | 0.00 | 0.00 | 63 | 1016.8 |
| 20260901041240 | 81 | 172 | 0.0 | 0.0 | 0.00 | 0.00 | 0.00 | 62 | 1016.6 |
| 20260901040735 | 82 | 178 | 0.0 | 0.0 | 0.00 | 0.00 | 0.00 | 61 | 1016.7 |
| 20260901040234 | 82 | 167 | 0.0 | 0.0 | 0.00 | 0.00 | 0.00 | 60 | 1016.8 |
| 20260901035732 | 82 | 165 | 0.0 | 0.0 | 0.00 | 0.00 | 0.00 | 60 | 1016.9 |
| 20260901035232 | 82 | 165 | 0.0 | 0.0 | 0.00 | 0.00 | 0.00 | 60 | 1016.9 |
| 20260901034731 | 82 | 170 | 0.0 | 0.0 | 0.00 | 0.00 | 0.00 | 60 | 1016.8 |
| 20260901034226 | 82 | 185 | 0.0 | 0.0 | 0.00 | 0.00 | 0.00 | 60 | 1017.0 |
| 20260901033726 | 82 | 179 | 0.0 | 0.0 | 0.00 | 0.00 | 0.00 | 59 | 1016.8 |
| 20260901033225 | 82 | 169 | 0.0 | 0.0 | 0.00 | 0.00 | 0.00 | 59 | 1017.1 |
| 20260901032718 | 83 | 156 | 0.0 | 0.0 | 0.00 | 0.00 | 0.00 | 59 | 1016.8 |
| 20260901032212 | 83 | 173 | 0.0 | 0.0 | 0.00 | 0.00 | 0.00 | 58 | 1017.0 |
| 20260901031708 | 83 | 179 | 0.0 | 0.0 | 0.00 | 0.00 | 0.00 | 58 | 1016.8 |
| 20260901031203 | 83 | 176 | 0.0 | 0.0 | 0.00 | 0.00 | 0.00 | 58 | 1016.8 |
| 20260901030658 | 83 | 172 | 0.0 | 0.0 | 0.00 | 0.00 | 0.00 | 58 | 1016.9 |
| 20260901030153 | 83 | 174 | 0.0 | 0.0 | 0.00 | 0.00 | 0.00 | 57 | 1016.8 |
| 20260901025648 | 83 | 174 | 0.0 | 0.0 | 0.00 | 0.00 | 0.00 | 57 | 1016.6 |
| 20260901025142 | 84 | 185 | 0.0 | 0.0 | 0.00 | 0.00 | 0.00 | 57 | 1016.8 |
| 20260901024641 | 84 | 173 | 0.0 | 0.0 | 0.00 | 0.00 | 0.00 | 56 | 1016.6 |
| 20260901024136 | 84 | 173 | 0.0 | 0.0 | 0.00 | 0.00 | 0.00 | 56 | 1016.5 |
| 20260901023635 | 84 | 149 | 0.0 | 0.0 | 0.00 | 0.00 | 0.00 | 56 | 1016.1 |
| 20260901023129 | 84 | 167 | 0.0 | 0.0 | 0.00 | 0.00 | 0.00 | 56 | 1016.2 |
| 20260901022624 | 84 | 168 | 0.0 | 0.0 | 0.00 | 0.00 | 0.00 | 56 | 1016.4 |
| 20260901022120 | 84 | 169 | 0.0 | 0.0 | 0.00 | 0.00 | 0.00 | 56 | 1016.1 |
| 20260901021616 | 85 | 171 | 0.0 | 0.0 | 0.00 | 0.00 | 0.00 | 56 | 1016.0 |
| 20260901021110 | 85 | 164 | 0.0 | 0.0 | 0.00 | 0.00 | 0.00 | 56 | 1016.0 |
| 20260901020606 | 85 | 172 | 0.0 | 0.0 | 0.00 | 0.00 | 0.00 | 56 | 1016.0 |
| 20260901020101 | 85 | 172 | 0.0 | 0.0 | 0.00 | 0.00 | 0.00 | 56 | 1015.8 |
| 20260901015556 | 85 | 161 | 0.0 | 0.0 | 0.00 | 0.00 | 0.00 | 56 | 1015.9 |
| 20260901015056 | 85 | 169 | 0.0 | 0.0 | 0.00 | 0.00 | 0.00 | 57 | 1015.7 |
| 20260901014551 | 85 | 174 | 0.0 | 0.0 | 0.00 | 0.00 | 0.00 | 57 | 1015.7 |
| 20260901014047 | 84 | 172 | 0.0 | 0.0 | 0.00 | 0.00 | 0.00 | 58 | 1015.7 |
| 20260901013543 | 84 | 172 | 0.0 | 0.0 | 0.00 | 0.00 | 0.00 | 59 | 1015.4 |
| 20260901013038 | 85 | 172 | 0.0 | 0.0 | 0.00 | 0.00 | 0.00 | 57 | 1015.6 |
| 20260901012538 | 85 | 172 | 0.0 | 0.0 | 0.00 | 0.00 | 0.00 | 56 | 1015.6 |
| 20260901012033 | 86 | 172 | 0.0 | 0.0 | 0.00 | 0.00 | 0.00 | 56 | 1015.3 |
| 20260901011530 | 86 | 172 | 0.0 | 0.0 | 0.00 | 0.00 | 0.00 | 54 | 1015.4 |
| 20260901011027 | 87 | 172 | 0.0 | 0.0 | 0.00 | 0.00 | 0.00 | 53 | 1015.1 |
| 20260901010522 | 87 | 172 | 0.0 | 0.0 | 0.00 | 0.00 | 0.00 | 53 | 1015.3 |
| 20260901010022 | 87 | 172 | 0.0 | 0.0 | 0.00 | 0.00 | 0.00 | 52 | 1015.2 |
| 20260901005522 | 88 | 172 | 0.0 | 0.0 | 0.00 | 0.00 | 0.00 | 52 | 1015.3 |
| 20260901005017 | 89 | 172 | 0.0 | 0.0 | 0.00 | 0.00 | 0.00 | 50 | 1015.2 |
| 20260901004517 | 89 | 172 | 0.0 | 0.0 | 0.00 | 0.00 | 0.00 | 49 | 1014.9 |
| 20260901004012 | 90 | 172 | 0.0 | 0.0 | 0.00 | 0.00 | 0.00 | 49 | 1015.1 |
| 20260901003507 | 90 | 172 | 0.0 | 0.0 | 0.00 | 0.00 | 0.00 | 48 | 1015.3 |
| 20260901003005 | 91 | 172 | 0.0 | 0.0 | 0.00 | 0.00 | 0.00 | 47 | 1014.8 |
| 20260901002501 | 91 | 176 | 0.0 | 0.0 | 0.00 | 0.00 | 0.00 | 47 | 1015.0 |
| 20260901001954 | 91 | 164 | 0.0 | 0.0 | 0.00 | 0.00 | 0.00 | 46 | 1014.9 |
| 20260901001450 | 92 | 170 | 0.0 | 0.0 | 0.00 | 0.00 | 0.00 | 45 | 1014.8 |
| 20260901000945 | 93 | 178 | 0.0 | 0.0 | 0.00 | 0.00 | 0.00 | 45 | 1015.0 |
| 20260901000439 | 93 | 159 | 0.0 | 0.0 | 0.00 | 0.00 | 0.00 | 44 | 1014.9 |
| 20260831235939 | 93 | 177 | 0.0 | 0.0 | 0.00 | 0.00 | 0.00 | 43 | 1015.0 |
| 20260831235434 | 93 | 172 | 0.0 | 1.0 | 0.00 | 0.00 | 0.00 | 43 | 1015.0 |
| 20260831234929 | 94 | 169 | 0.0 | 0.0 | 0.00 | 0.00 | 0.00 | 43 | 1015.0 |
| 20260831234424 | 94 | 180 | 0.0 | 2.0 | 0.00 | 0.00 | 0.00 | 42 | 1014.9 |
| 20260831233919 | 95 | 176 | 0.0 | 0.0 | 0.00 | 0.00 | 0.00 | 42 | 1015.0 |
| 20260831233414 | 95 | 154 | 0.0 | 0.0 | 0.00 | 0.00 | 0.00 | 41 | 1014.8 |
| 20260831232910 | 95 | 161 | 0.0 | 0.0 | 0.00 | 0.00 | 0.00 | 41 | 1015.0 |
| 20260831232406 | 95 | 115 | 0.0 | 2.0 | 0.00 | 0.00 | 0.00 | 40 | 1015.1 |
| 20260831231901 | 95 | 152 | 0.0 | 1.0 | 0.00 | 0.00 | 0.00 | 40 | 1014.8 |
| 20260831231357 | 96 | 169 | 0.0 | 0.0 | 0.00 | 0.00 | 0.00 | 39 | 1015.0 |
| 20260831230852 | 96 | 162 | 0.0 | 3.0 | 0.00 | 0.00 | 0.00 | 39 | 1014.9 |
| 20260831230347 | 96 | 150 | 0.0 | 0.0 | 0.00 | 0.00 | 0.00 | 39 | 1014.8 |
| 20260831225842 | 96 | 146 | 0.0 | 3.0 | 0.00 | 0.00 | 0.00 | 39 | 1014.8 |
| 20260831225336 | 97 | 175 | 0.0 | 1.0 | 0.00 | 0.00 | 0.00 | 38 | 1015.0 |
| 20260831224832 | 97 | 214 | 0.0 | 3.0 | 0.00 | 0.00 | 0.00 | 38 | 1015.0 |
| 20260831224327 | 97 | 142 | 0.0 | 2.0 | 0.00 | 0.00 | 0.00 | 38 | 1014.8 |
| 20260831223821 | 97 | 174 | 0.0 | 2.0 | 0.00 | 0.00 | 0.00 | 37 | 1014.9 |
| 20260831223312 | 97 | 151 | 0.0 | 2.0 | 0.00 | 0.00 | 0.00 | 36 | 1014.9 |
| 20260831222809 | 97 | 176 | 0.0 | 0.0 | 0.00 | 0.00 | 0.00 | 37 | 1015.1 |
| 20260831222306 | 98 | 162 | 0.0 | 3.0 | 0.00 | 0.00 | 0.00 | 38 | 1015.1 |
| 20260831221759 | 98 | 159 | 0.0 | 0.0 | 0.00 | 0.00 | 0.00 | 35 | 1015.0 |
| 20260831221255 | 98 | 175 | 1.0 | 2.0 | 0.00 | 0.00 | 0.00 | 35 | 1015.1 |
| 20260831220754 | 98 | 173 | 0.0 | 0.0 | 0.00 | 0.00 | 0.00 | 35 | 1015.1 |
| 20260831220249 | 98 | 139 | 1.0 | 2.0 | 0.00 | 0.00 | 0.00 | 35 | 1015.2 |
| 20260831215749 | 100 | 193 | 0.0 | 2.0 | 0.00 | 0.00 | 0.00 | 34 | 1015.1 |
| 20260831215246 | 100 | 149 | 2.0 | 4.0 | 0.00 | 0.00 | 0.00 | 34 | 1015.1 |
| 20260831214742 | 100 | 180 | 0.0 | 2.0 | 0.00 | 0.00 | 0.00 | 34 | 1015.0 |
| 20260831214239 | 101 | 184 | 0.0 | 1.0 | 0.00 | 0.00 | 0.00 | 33 | 1014.8 |
| 20260831213735 | 100 | 165 | 0.0 | 0.0 | 0.00 | 0.00 | 0.00 | 33 | 1015.0 |
| 20260831213232 | 101 | 173 | 0.0 | 2.0 | 0.00 | 0.00 | 0.00 | 33 | 1015.2 |
| 20260831212731 | 101 | 173 | 0.0 | 0.0 | 0.00 | 0.00 | 0.00 | 32 | 1015.1 |
| 20260831212228 | 102 | 150 | 1.0 | 4.0 | 0.00 | 0.00 | 0.00 | 32 | 1015.1 |
| 20260831211726 | 101 | 196 | 0.0 | 0.0 | 0.00 | 0.00 | 0.00 | 33 | 1015.3 |
| 20260831211222 | 102 | 185 | 0.0 | 0.0 | 0.00 | 0.00 | 0.00 | 33 | 1015.3 |
| 20260831210716 | 100 | 188 | 0.0 | 0.0 | 0.00 | 0.00 | 0.00 | 32 | 1015.3 |
| 20260831210208 | 100 | 175 | 0.0 | 0.0 | 0.00 | 0.00 | 0.00 | 34 | 1015.4 |
| 20260831205706 | 102 | 196 | 0.0 | 2.0 | 0.00 | 0.00 | 0.00 | 32 | 1015.5 |
| 20260831205202 | 103 | 175 | 0.0 | 3.0 | 0.00 | 0.00 | 0.00 | 32 | 1015.4 |
| 20260831204657 | 102 | 167 | 0.0 | 3.0 | 0.00 | 0.00 | 0.00 | 32 | 1015.7 |
| 20260831204156 | 102 | 182 | 0.0 | 1.0 | 0.00 | 0.00 | 0.00 | 33 | 1015.7 |
| 20260831203655 | 103 | 177 | 0.0 | 3.0 | 0.00 | 0.00 | 0.00 | 32 | 1015.7 |
| 20260831203149 | 101 | 195 | 0.0 | 2.0 | 0.00 | 0.00 | 0.00 | 32 | 1015.9 |
| 20260831202648 | 98 | 174 | 0.0 | 0.0 | 0.00 | 0.00 | 0.00 | 36 | 1016.0 |
| 20260831202143 | 100 | 182 | 0.0 | 0.0 | 0.00 | 0.00 | 0.00 | 34 | 1015.7 |
| 20260831201642 | 102 | 165 | 0.0 | 1.0 | 0.00 | 0.00 | 0.00 | 33 | 1015.8 |
| 20260831201137 | 103 | 179 | 0.0 | 3.0 | 0.00 | 0.00 | 0.00 | 33 | 1016.0 |
| 20260831200633 | 103 | 155 | 0.0 | 0.0 | 0.00 | 0.00 | 0.00 | 33 | 1015.9 |
| 20260831200133 | 105 | 155 | 0.0 | 0.0 | 0.00 | 0.00 | 0.00 | 32 | 1016.2 |
| 20260831195623 | 104 | 185 | 0.0 | 0.0 | 0.00 | 0.00 | 0.00 | 32 | 1016.0 |
| 20260831195124 | 103 | 125 | 1.0 | 2.0 | 0.00 | 0.00 | 0.00 | 32 | 1015.9 |
| 20260831194619 | 104 | 220 | 1.0 | 2.0 | 0.00 | 0.00 | 0.00 | 32 | 1016.1 |
| 20260831194114 | 102 | 125 | 1.0 | 3.0 | 0.00 | 0.00 | 0.00 | 33 | 1016.1 |
| 20260831193609 | 103 | 45 | 0.0 | 3.0 | 0.00 | 0.00 | 0.00 | 32 | 1016.1 |
| 20260831193103 | 103 | 159 | 0.0 | 2.0 | 0.00 | 0.00 | 0.00 | 32 | 1016.5 |
| 20260831192558 | 102 | 213 | 0.0 | 0.0 | 0.00 | 0.00 | 0.00 | 35 | 1016.4 |
| 20260831192053 | 101 | 173 | 0.0 | 0.0 | 0.00 | 0.00 | 0.00 | 35 | 1016.4 |
| 20260831191549 | 101 | 168 | 0.0 | 0.0 | 0.00 | 0.00 | 0.00 | 36 | 1016.5 |
| 20260831191045 | 98 | 161 | 0.0 | 0.0 | 0.00 | 0.00 | 0.00 | 38 | 1016.5 |
| 20260831190540 | 99 | 195 | 0.0 | 0.0 | 0.00 | 0.00 | 0.00 | 36 | 1016.6 |
| 20260831190038 | 100 | 184 | 0.0 | 0.0 | 0.00 | 0.00 | 0.00 | 36 | 1016.7 |
| 20260831185535 | 100 | 181 | 0.0 | 2.0 | 0.00 | 0.00 | 0.00 | 36 | 1016.7 |
| 20260831185030 | 101 | 175 | 0.0 | 1.0 | 0.00 | 0.00 | 0.00 | 35 | 1016.7 |
| 20260831184530 | 101 | 211 | 0.0 | 0.0 | 0.00 | 0.00 | 0.00 | 34 | 1016.7 |
| 20260831184025 | 104 | 121 | 0.0 | 1.0 | 0.00 | 0.00 | 0.00 | 32 | 1016.8 |
| 20260831183524 | 102 | 172 | 0.0 | 2.0 | 0.00 | 0.00 | 0.00 | 33 | 1016.8 |
| 20260831183019 | 103 | 188 | 0.0 | 2.0 | 0.00 | 0.00 | 0.00 | 35 | 1016.9 |
| 20260831182514 | 104 | 175 | 0.0 | 2.0 | 0.00 | 0.00 | 0.00 | 34 | 1017.2 |
| 20260831182009 | 103 | 164 | 0.0 | 2.0 | 0.00 | 0.00 | 0.00 | 33 | 1017.0 |
| 20260831181504 | 102 | 119 | 0.0 | 0.0 | 0.00 | 0.00 | 0.00 | 34 | 1017.0 |
| 20260831180959 | 100 | 183 | 0.0 | 2.0 | 0.00 | 0.00 | 0.00 | 36 | 1017.2 |
| 20260831180458 | 102 | 166 | 0.0 | 1.0 | 0.00 | 0.00 | 0.00 | 33 | 1017.2 |
| 20260831175958 | 102 | 187 | 0.0 | 0.0 | 0.00 | 0.00 | 0.00 | 34 | 1017.3 |
| 20260831175454 | 102 | 137 | 2.0 | 4.0 | 0.00 | 0.00 | 0.00 | 34 | 1017.4 |
| 20260831174950 | 101 | 156 | 0.0 | 2.0 | 0.00 | 0.00 | 0.00 | 38 | 1017.6 |
| 20260831174440 | 101 | 199 | 0.0 | 1.0 | 0.00 | 0.00 | 0.00 | 38 | 1017.4 |
| 20260831173939 | 100 | 114 | 0.0 | 2.0 | 0.00 | 0.00 | 0.00 | 40 | 1017.5 |
| 20260831173437 | 100 | 169 | 0.0 | 1.0 | 0.00 | 0.00 | 0.00 | 39 | 1017.4 |
| 20260831172933 | 100 | 165 | 0.0 | 3.0 | 0.00 | 0.00 | 0.00 | 40 | 1017.6 |
| 20260831172429 | 100 | 172 | 1.0 | 2.0 | 0.00 | 0.00 | 0.00 | 40 | 1017.5 |
| 20260831171924 | 99 | 203 | 1.0 | 4.0 | 0.00 | 0.00 | 0.00 | 41 | 1017.5 |
| 20260831171420 | 99 | 180 | 0.0 | 0.0 | 0.00 | 0.00 | 0.00 | 43 | 1017.7 |
| 20260831170916 | 100 | 150 | 0.0 | 1.0 | 0.00 | 0.00 | 0.00 | 43 | 1017.7 |
| 20260831170412 | 99 | 224 | 0.0 | 1.0 | 0.00 | 0.00 | 0.00 | 42 | 1017.6 |
| 20260831165909 | 99 | 177 | 0.0 | 1.0 | 0.00 | 0.00 | 0.00 | 45 | 1017.9 |
| 20260831165404 | 99 | 181 | 0.0 | 2.0 | 0.00 | 0.00 | 0.00 | 44 | 1018.0 |
| 20260831164901 | 99 | 181 | 0.0 | 0.0 | 0.00 | 0.00 | 0.00 | 43 | 1017.9 |
| 20260831164357 | 97 | 180 | 0.0 | 0.0 | 0.00 | 0.00 | 0.00 | 46 | 1018.0 |
| 20260831163852 | 97 | 186 | 0.0 | 1.0 | 0.00 | 0.00 | 0.00 | 46 | 1018.2 |
| 20260831163348 | 95 | 136 | 0.0 | 1.0 | 0.00 | 0.00 | 0.00 | 47 | 1018.2 |
| 20260831162846 | 97 | 148 | 0.0 | 0.0 | 0.00 | 0.00 | 0.00 | 46 | 1018.4 |
| 20260831162342 | 97 | 188 | 0.0 | 0.0 | 0.00 | 0.00 | 0.00 | 47 | 1018.2 |
| 20260831161840 | 95 | 122 | 1.0 | 2.0 | 0.00 | 0.00 | 0.00 | 49 | 1018.3 |
| 20260831161336 | 95 | 194 | 0.0 | 0.0 | 0.00 | 0.00 | 0.00 | 49 | 1018.2 |
| 20260831160832 | 95 | 234 | 0.0 | 2.0 | 0.00 | 0.00 | 0.00 | 49 | 1018.0 |
| 20260831160331 | 94 | 170 | 0.0 | 3.0 | 0.00 | 0.00 | 0.00 | 50 | 1018.3 |
| 20260831155826 | 95 | 169 | 0.0 | 0.0 | 0.00 | 0.00 | 0.00 | 49 | 1018.3 |
| 20260831155321 | 94 | 183 | 0.0 | 1.0 | 0.00 | 0.00 | 0.00 | 50 | 1018.2 |
| 20260831154817 | 94 | 168 | 0.0 | 4.0 | 0.00 | 0.00 | 0.00 | 51 | 1018.3 |
| 20260831154313 | 94 | 184 | 0.0 | 2.0 | 0.00 | 0.00 | 0.00 | 51 | 1018.3 |
| 20260831153812 | 92 | 160 | 0.0 | 0.0 | 0.00 | 0.00 | 0.00 | 52 | 1018.2 |
| 20260831153308 | 91 | 172 | 0.0 | 1.0 | 0.00 | 0.00 | 0.00 | 54 | 1018.3 |
| 20260831152803 | 91 | 170 | 0.0 | 2.0 | 0.00 | 0.00 | 0.00 | 53 | 1018.3 |
| 20260831152259 | 89 | 195 | 0.0 | 0.0 | 0.00 | 0.00 | 0.00 | 55 | 1018.3 |
| 20260831151754 | 90 | 192 | 0.0 | 2.0 | 0.00 | 0.00 | 0.00 | 55 | 1018.2 |
| 20260831151253 | 90 | 165 | 0.0 | 1.0 | 0.00 | 0.00 | 0.00 | 55 | 1018.2 |
| 20260831150748 | 90 | 141 | 0.0 | 1.0 | 0.00 | 0.00 | 0.00 | 55 | 1018.2 |
| 20260831150244 | 90 | 180 | 0.0 | 1.0 | 0.00 | 0.00 | 0.00 | 56 | 1018.1 |
| 20260831145743 | 88 | 145 | 1.0 | 2.0 | 0.00 | 0.00 | 0.00 | 56 | 1018.2 |
| 20260831145239 | 87 | 166 | 2.0 | 7.0 | 0.00 | 0.00 | 0.00 | 57 | 1018.0 |
| 20260831144734 | 87 | 166 | 0.0 | 2.0 | 0.00 | 0.00 | 0.00 | 59 | 1018.3 |
| 20260831144231 | 86 | 165 | 0.0 | 4.0 | 0.00 | 0.00 | 0.00 | 59 | 1017.9 |
| 20260831143730 | 86 | 189 | 0.0 | 0.0 | 0.00 | 0.00 | 0.00 | 60 | 1018.0 |
| 20260831143226 | 84 | 217 | 0.0 | 0.0 | 0.00 | 0.00 | 0.00 | 62 | 1018.0 |
| 20260831142721 | 83 | 174 | 0.0 | 1.0 | 0.00 | 0.00 | 0.00 | 63 | 1018.1 |
| 20260831142217 | 82 | 208 | 1.0 | 2.0 | 0.00 | 0.00 | 0.00 | 64 | 1018.0 |
| 20260831141716 | 82 | 181 | 0.0 | 0.0 | 0.00 | 0.00 | 0.00 | 65 | 1018.0 |
| 20260831141211 | 81 | 181 | 0.0 | 1.0 | 0.00 | 0.00 | 0.00 | 66 | 1017.9 |
| 20260831140711 | 80 | 266 | 0.0 | 0.0 | 0.00 | 0.00 | 0.00 | 66 | 1018.1 |
| 20260831140205 | 80 | 158 | 2.0 | 3.0 | 0.00 | 0.00 | 0.00 | 67 | 1018.3 |
| 20260831135703 | 79 | 183 | 0.0 | 4.0 | 0.00 | 0.00 | 0.00 | 68 | 1018.1 |
| 20260831135159 | 78 | 162 | 0.0 | 0.0 | 0.00 | 0.00 | 0.00 | 69 | 1018.1 |
| 20260831134654 | 78 | 186 | 0.0 | 0.0 | 0.00 | 0.00 | 0.00 | 70 | 1018.0 |
| 20260831134149 | 77 | 172 | 0.0 | 0.0 | 0.00 | 0.00 | 0.00 | 70 | 1018.2 |
| 20260831133648 | 77 | 169 | 0.0 | 0.0 | 0.00 | 0.00 | 0.00 | 72 | 1018.2 |
| 20260831133143 | 76 | 163 | 0.0 | 0.0 | 0.00 | 0.00 | 0.00 | 72 | 1017.9 |
| 20260831132639 | 76 | 168 | 0.0 | 0.0 | 0.00 | 0.00 | 0.00 | 73 | 1017.9 |
| 20260831132138 | 75 | 178 | 0.0 | 0.0 | 0.00 | 0.00 | 0.00 | 73 | 1018.0 |
| 20260831131633 | 75 | 176 | 0.0 | 0.0 | 0.00 | 0.00 | 0.00 | 74 | 1017.9 |
| 20260831131130 | 74 | 178 | 0.0 | 0.0 | 0.00 | 0.00 | 0.00 | 75 | 1017.8 |
| 20260831130625 | 74 | 173 | 0.0 | 0.0 | 0.00 | 0.00 | 0.00 | 75 | 1017.8 |
| 20260831130120 | 73 | 113 | 0.0 | 0.0 | 0.00 | 0.00 | 0.00 | 76 | 1017.7 |
| 20260831125618 | 73 | 171 | 0.0 | 0.0 | 0.00 | 0.00 | 0.00 | 77 | 1017.6 |
| 20260831125115 | 72 | 180 | 0.0 | 0.0 | 0.00 | 0.00 | 0.00 | 77 | 1017.4 |
| 20260831124610 | 72 | 172 | 0.0 | 0.0 | 0.00 | 0.00 | 0.00 | 78 | 1017.5 |
| 20260831124106 | 72 | 177 | 0.0 | 0.0 | 0.00 | 0.00 | 0.00 | 78 | 1017.2 |
| 20260831123606 | 71 | 163 | 0.0 | 0.0 | 0.00 | 0.00 | 0.00 | 79 | 1017.5 |
| 20260831123105 | 71 | 158 | 0.0 | 0.0 | 0.00 | 0.00 | 0.00 | 79 | 1017.3 |
| 20260831122600 | 71 | 172 | 0.0 | 0.0 | 0.00 | 0.00 | 0.00 | 79 | 1017.3 |
| 20260831122056 | 71 | 156 | 0.0 | 0.0 | 0.00 | 0.00 | 0.00 | 79 | 1017.1 |
| 20260831121555 | 70 | 179 | 0.0 | 0.0 | 0.00 | 0.00 | 0.00 | 79 | 1017.0 |
| 20260831121052 | 70 | 174 | 0.0 | 0.0 | 0.00 | 0.00 | 0.00 | 80 | 1016.9 |
| 20260831120551 | 70 | 176 | 0.0 | 0.0 | 0.00 | 0.00 | 0.00 | 80 | 1017.0 |
| 20260831120047 | 70 | 171 | 0.0 | 0.0 | 0.00 | 0.00 | 0.00 | 80 | 1016.8 |
| 20260831115542 | 70 | 189 | 0.0 | 0.0 | 0.00 | 0.00 | 0.00 | 80 | 1016.9 |
| 20260831115037 | 70 | 172 | 0.0 | 0.0 | 0.00 | 0.00 | 0.00 | 80 | 1016.8 |
| 20260831114536 | 70 | 171 | 0.0 | 0.0 | 0.00 | 0.00 | 0.00 | 80 | 1016.6 |
| 20260831114031 | 69 | 175 | 0.0 | 0.0 | 0.00 | 0.00 | 0.00 | 80 | 1016.7 |
| 20260831113531 | 69 | 175 | 0.0 | 0.0 | 0.00 | 0.00 | 0.00 | 81 | 1016.4 |
| 20260831113027 | 70 | 178 | 0.0 | 0.0 | 0.00 | 0.00 | 0.00 | 80 | 1016.6 |
| 20260831112526 | 70 | 166 | 0.0 | 0.0 | 0.00 | 0.00 | 0.00 | 79 | 1016.4 |
| 20260831112021 | 70 | 142 | 0.0 | 0.0 | 0.00 | 0.00 | 0.00 | 79 | 1016.5 |
| 20260831111517 | 70 | 177 | 0.0 | 0.0 | 0.00 | 0.00 | 0.00 | 79 | 1016.2 |
| 20260831111012 | 70 | 174 | 0.0 | 0.0 | 0.00 | 0.00 | 0.00 | 79 | 1016.2 |
| 20260831110508 | 70 | 175 | 0.0 | 0.0 | 0.00 | 0.00 | 0.00 | 78 | 1016.4 |
| 20260831110008 | 70 | 175 | 0.0 | 0.0 | 0.00 | 0.00 | 0.00 | 79 | 1016.1 |
| 20260831105502 | 70 | 172 | 0.0 | 0.0 | 0.00 | 0.00 | 0.00 | 79 | 1016.2 |
| 20260831104957 | 70 | 172 | 0.0 | 0.0 | 0.00 | 0.00 | 0.00 | 79 | 1016.0 |
| 20260831104454 | 70 | 181 | 0.0 | 0.0 | 0.00 | 0.00 | 0.00 | 79 | 1016.1 |
| 20260831103949 | 70 | 160 | 0.0 | 0.0 | 0.00 | 0.00 | 0.00 | 79 | 1016.1 |
| 20260831103444 | 70 | 178 | 0.0 | 0.0 | 0.00 | 0.00 | 0.00 | 79 | 1016.1 |
| 20260831102940 | 70 | 175 | 0.0 | 0.0 | 0.00 | 0.00 | 0.00 | 79 | 1016.1 |
| 20260831102440 | 70 | 173 | 0.0 | 0.0 | 0.00 | 0.00 | 0.00 | 79 | 1016.2 |
| 20260831101940 | 70 | 182 | 0.0 | 0.0 | 0.00 | 0.00 | 0.00 | 79 | 1016.1 |
| 20260831101435 | 71 | 166 | 0.0 | 0.0 | 0.00 | 0.00 | 0.00 | 78 | 1015.9 |
| 20260831100931 | 71 | 177 | 0.0 | 0.0 | 0.00 | 0.00 | 0.00 | 78 | 1016.1 |
| 20260831100427 | 71 | 165 | 0.0 | 0.0 | 0.00 | 0.00 | 0.00 | 77 | 1016.0 |
| 20260831095921 | 71 | 166 | 0.0 | 0.0 | 0.00 | 0.00 | 0.00 | 77 | 1016.0 |
| 20260831095420 | 71 | 167 | 0.0 | 0.0 | 0.00 | 0.00 | 0.00 | 77 | 1016.1 |
| 20260831094916 | 71 | 160 | 0.0 | 0.0 | 0.00 | 0.00 | 0.00 | 78 | 1016.1 |
| 20260831094412 | 71 | 177 | 0.0 | 0.0 | 0.00 | 0.00 | 0.00 | 77 | 1016.4 |
| 20260831093908 | 71 | 171 | 0.0 | 0.0 | 0.00 | 0.00 | 0.00 | 77 | 1016.1 |
| 20260831093402 | 71 | 178 | 0.0 | 0.0 | 0.00 | 0.00 | 0.00 | 77 | 1016.1 |
| 20260831092859 | 71 | 176 | 0.0 | 0.0 | 0.00 | 0.00 | 0.00 | 77 | 1016.1 |
| 20260831092354 | 71 | 180 | 0.0 | 0.0 | 0.00 | 0.00 | 0.00 | 77 | 1016.0 |
| 20260831091849 | 72 | 178 | 0.0 | 0.0 | 0.00 | 0.00 | 0.00 | 76 | 1015.9 |
| 20260831091339 | 72 | 188 | 0.0 | 0.0 | 0.00 | 0.00 | 0.00 | 76 | 1016.0 |
| 20260831090834 | 73 | 175 | 0.0 | 0.0 | 0.00 | 0.00 | 0.00 | 75 | 1016.0 |
| 20260831090330 | 73 | 139 | 0.0 | 0.0 | 0.00 | 0.00 | 0.00 | 75 | 1016.2 |
| 20260831085826 | 73 | 166 | 0.0 | 0.0 | 0.00 | 0.00 | 0.00 | 75 | 1016.0 |
| 20260831085321 | 73 | 174 | 0.0 | 0.0 | 0.00 | 0.00 | 0.00 | 75 | 1016.0 |
| 20260831084815 | 73 | 163 | 0.0 | 0.0 | 0.00 | 0.00 | 0.00 | 75 | 1016.0 |
| 20260831084306 | 73 | 166 | 0.0 | 0.0 | 0.00 | 0.00 | 0.00 | 74 | 1016.0 |
| 20260831083802 | 73 | 129 | 0.0 | 0.0 | 0.00 | 0.00 | 0.00 | 74 | 1015.7 |
| 20260831083257 | 73 | 148 | 0.0 | 1.0 | 0.00 | 0.00 | 0.00 | 74 | 1015.8 |
| 20260831082755 | 73 | 170 | 0.0 | 0.0 | 0.00 | 0.00 | 0.00 | 74 | 1015.9 |
| 20260831082245 | 73 | 159 | 0.0 | 0.0 | 0.00 | 0.00 | 0.00 | 75 | 1015.9 |
| 20260831081740 | 73 | 164 | 0.0 | 0.0 | 0.00 | 0.00 | 0.00 | 75 | 1015.8 |
| 20260831081236 | 74 | 171 | 0.0 | 0.0 | 0.00 | 0.00 | 0.00 | 74 | 1016.0 |
| 20260831080731 | 74 | 171 | 0.0 | 0.0 | 0.00 | 0.00 | 0.00 | 73 | 1015.6 |
| 20260831080226 | 74 | 191 | 0.0 | 1.0 | 0.00 | 0.00 | 0.00 | 73 | 1015.8 |
| 20260831075722 | 73 | 172 | 0.0 | 0.0 | 0.00 | 0.00 | 0.00 | 74 | 1015.7 |
| 20260831075218 | 73 | 143 | 0.0 | 0.0 | 0.00 | 0.00 | 0.00 | 75 | 1015.8 |
| 20260831074717 | 73 | 178 | 0.0 | 0.0 | 0.00 | 0.00 | 0.00 | 75 | 1015.6 |
| 20260831074217 | 73 | 177 | 0.0 | 0.0 | 0.00 | 0.00 | 0.00 | 75 | 1015.8 |
| 20260831073713 | 74 | 176 | 0.0 | 0.0 | 0.00 | 0.00 | 0.00 | 74 | 1015.7 |
| 20260831073211 | 74 | 185 | 0.0 | 0.0 | 0.00 | 0.00 | 0.00 | 74 | 1015.7 |
| 20260831072706 | 74 | 172 | 0.0 | 0.0 | 0.00 | 0.00 | 0.00 | 74 | 1016.0 |